User: anonymous   Login
Location: Unspecified
(0.0000°N, 0.0000°E)
Time: 06:09:59
(UTC+00:00)
Language:

NOSS 7 (D) - Orbit

View from above orbital plane
View from above orbital plane
View from above satellite
View from above satellite

Ground track
Ground track

The orbit data is extracted from the following two-line orbital elements,

1 16623U 86014D   17278.77915072 0.00001300  00000-0  16249-3 0    02
2 16623  63.3080 264.6948 0888000  58.9023 301.0976 13.45208573    04
Epoch (UTC): 05 October 2017 18:41:58
Eccentricity: 0.0888000
inclination: 63.3080°
perigee height: 427 km
apogee height: 1753 km
right ascension of ascending node: 264.6948°
argument of perigee: 58.9023°
revolutions per day: 13.45208573
mean anomaly at epoch: 301.0976°
orbit number at epoch: 0

The dashed part of the orbit path shows where the satellite is in the earth's shadow,  

DLR